"Pseudo-MPEC" for P10MuvD

Created 2019 Apr 23 0:07:04 UT using Find_Orb

Click here for an explanation of pseudo-MPECs

 
 Astrometry: 
     P10MuvD  C2019 04 03;6'[C,%f9t3CFvNLU/,Kuy_@\`^JUt+k=7p)PEpMcp$kBY!N*P(dF51
     P10MuvD  C2019 04 03SA^i[Bm6py[gjRpAwfH:7L,Y_abAstrometryC7D-redacted;DeF51
     P10MuvD  C2019 04 03lgFh[6_ZrL$$clickwEU=HoTt!h4bPWhereTt?x9ef_S!Oforl5!F51
     P10MuvD  C2019 04 03s9%J9ZgaPv5+dIHn[hT'?t@ruI?0K8JPbce)explanation$o%9CF51
     P10MuvD ^C2019 04 04.47561413 35 16.273-10 47 45.31   ~44JI 22.14GVNEOCP568
     P10MuvD ^C2019 04 04.47656013 35 16.484-10 47 45.63   ~44JI 22.34GVNEOCP568
     P10MuvD ^C2019 04 04.47752613 35 16.719-10 47 45.95   ~44JI 22.32GVNEOCP568

Station data:
(568) Mauna Kea  (N19.826116 W155.472200)  US/Hawaii.
(F51) Pan-STARRS 1, Haleakala  (N20.707235 W156.255910)  US/Hawaii.
   Observers N. Primak, A. Schultz, S. Watters, J. Thiel, T. Goggia. Measurer
   PS1 Science Consortium. 1.8-m Ritchey-Chrétien + CCD.

Orbital elements:  P10MuvD
   Perihelion 2019 Feb 19.590214 +/- 0.382 TT = 14:09:54 (JD 2458534.090214)
Epoch 2019 Apr  4.0 TT = JDT 2458577.5   Earth MOID: 0.0007   Ma: 0.0105
M  19.29812461 +/- 0.51             (J2000 ecliptic)          AutoNEOCP
n   0.44455700 +/- 0.00819          Peri.  298.51427 +/- 0.8
a   1.70026940 +/- 0.0209           Node   197.21682 +/- 0.17
e   0.4938808 +/- 0.00469           Incl.    0.33340 +/- 0.045
P   2.22/809.78d           H 29.9   G  0.15   U  9.5  
q 0.86053895 +/- 0.00392    Q 2.53999986 +/- 0.0391
From 7 observations 2019 Apr. 3-4 (24.5 hr); mean residual 0".13
Residuals in arcseconds: 
190403 F51  .10-  .03-    190403 F51  .12+  .05-    190404 568  .05+  .02-    
190403 F51  .31+  .03+    190404 568  .04+  .02+    
190403 F51  .33-  .05+    190404 568  .10-  .00     

Ephemerides (geocentric):
Date (UTC) HH   RA              Dec         delta   r     elong  mag " sig PA
---- -- -- --  -------------   -----------  ------ ------ -----  --- ---- ---
2019 04 23 00  13 53 27.208   -10 55 45.98  .14576 1.1509 177.8 26.2 1143  92
2019 04 23 01  13 53 27.479   -10 55 46.02  .14605 1.1512 177.8 26.2 1143  92
2019 04 23 02  13 53 27.750   -10 55 46.08  .14635 1.1515 177.7 26.2 1144  92
2019 04 23 03  13 53 28.019   -10 55 46.13  .14664 1.1518 177.7 26.2 1144  92
2019 04 23 04  13 53 28.288   -10 55 46.20  .14694 1.1521 177.7 26.2 1145  92
2019 04 23 05  13 53 28.556   -10 55 46.26  .14723 1.1524 177.6 26.2 1145  92
2019 04 23 06  13 53 28.823   -10 55 46.33  .14753 1.1527 177.6 26.2 1145  92
2019 04 23 07  13 53 29.089   -10 55 46.41  .14782 1.1530 177.6 26.3 1146  92
2019 04 23 08  13 53 29.355   -10 55 46.49  .14812 1.1533 177.5 26.3 1146  92
2019 04 23 09  13 53 29.620   -10 55 46.57  .14841 1.1536 177.5 26.3 1147  92
2019 04 23 10  13 53 29.885   -10 55 46.66  .14871 1.1540 177.4 26.3 1147  92
2019 04 23 11  13 53 30.149   -10 55 46.76  .14901 1.1543 177.4 26.3 1147  92
2019 04 23 12  13 53 30.412   -10 55 46.86  .14930 1.1546 177.4 26.3 1148  92
2019 04 23 13  13 53 30.674   -10 55 46.96  .14960 1.1549 177.3 26.3 1148  92
2019 04 23 14  13 53 30.936   -10 55 47.07  .14990 1.1552 177.3 26.3 1149  92
2019 04 23 15  13 53 31.197   -10 55 47.19  .15019 1.1555 177.2 26.3 1149  92
2019 04 23 16  13 53 31.458   -10 55 47.31  .15049 1.1558 177.2 26.3 1150  92
2019 04 23 17  13 53 31.718   -10 55 47.43  .15079 1.1561 177.2 26.3 1150  92
2019 04 23 18  13 53 31.977   -10 55 47.56  .15108 1.1564 177.1 26.3 1150  92
2019 04 23 19  13 53 32.236   -10 55 47.70  .15138 1.1567 177.1 26.3 1151  92
2019 04 23 20  13 53 32.495   -10 55 47.84  .15168 1.1570 177.1 26.3 1151  92
2019 04 23 21  13 53 32.753   -10 55 47.98  .15198 1.1573 177.0 26.4 1151  92
2019 04 23 22  13 53 33.010   -10 55 48.13  .15227 1.1576 177.0 26.4 1152  92
2019 04 23 23  13 53 33.267   -10 55 48.29  .15257 1.1579 176.9 26.4 1152  92
2019 04 24 00  13 53 33.523   -10 55 48.45  .15287 1.1582 176.9 26.4 1153  92
2019 04 24 01  13 53 33.779   -10 55 48.61  .15317 1.1585 176.9 26.4 1153  92
2019 04 24 02  13 53 34.035   -10 55 48.78  .15346 1.1588 176.8 26.4 1153  92
2019 04 24 03  13 53 34.289   -10 55 48.96  .15376 1.1591 176.8 26.4 1154  92
2019 04 24 04  13 53 34.544   -10 55 49.14  .15406 1.1594 176.7 26.4 1154  92
2019 04 24 05  13 53 34.798   -10 55 49.33  .15436 1.1597 176.7 26.4 1154  92
2019 04 24 06  13 53 35.052   -10 55 49.52  .15466 1.1600 176.7 26.4 1155  92
2019 04 24 07  13 53 35.305   -10 55 49.72  .15496 1.1603 176.6 26.4 1155  92
2019 04 24 08  13 53 35.558   -10 55 49.92  .15526 1.1606 176.6 26.4 1155  92
2019 04 24 09  13 53 35.811   -10 55 50.13  .15555 1.1609 176.5 26.4 1156  92
2019 04 24 10  13 53 36.063   -10 55 50.35  .15585 1.1612 176.5 26.4 1156  92
2019 04 24 11  13 53 36.314   -10 55 50.57  .15615 1.1616 176.5 26.5 1157  92
2019 04 24 12  13 53 36.566   -10 55 50.79  .15645 1.1619 176.4 26.5 1157  92
2019 04 24 13  13 53 36.817   -10 55 51.03  .15675 1.1622 176.4 26.5 1157  92
2019 04 24 14  13 53 37.068   -10 55 51.26  .15705 1.1625 176.4 26.5 1158  92
2019 04 24 15  13 53 37.318   -10 55 51.51  .15735 1.1628 176.3 26.5 1158  92
2019 04 24 16  13 53 37.569   -10 55 51.75  .15765 1.1631 176.3 26.5 1158  92
2019 04 24 17  13 53 37.819   -10 55 52.01  .15795 1.1634 176.2 26.5 1159  92
2019 04 24 18  13 53 38.068   -10 55 52.27  .15825 1.1637 176.2 26.5 1159  92
2019 04 24 19  13 53 38.318   -10 55 52.53  .15855 1.1640 176.2 26.5 1159  92
2019 04 24 20  13 53 38.567   -10 55 52.81  .15885 1.1643 176.1 26.5 1160  92
2019 04 24 21  13 53 38.816   -10 55 53.08  .15915 1.1646 176.1 26.5 1160  92
2019 04 24 22  13 53 39.065   -10 55 53.37  .15945 1.1649 176.0 26.5 1160  92
2019 04 24 23  13 53 39.313   -10 55 53.66  .15975 1.1652 176.0 26.5 1160  92